TITAN 3C TRANSTAGE DEB, 25001

Orbit data source: Space-Track

TITAN 3C TRANSTAGE DEB, 25001 is space debris in GEO originally from a launch on Thu, 26 Sep 1968 UTC launched from the Air Force Eastern Test Range (AFETR). Debris objects in space refer to the collection of defunct objects orbiting the Earth. Examples of debris include non-operational satellites, rocket bodies, and fragments generated from explosions, collisions, or faulty payload assembly.

Not visible in the next 10 days
Identifier
25001, 1968-081H
Orbit
GEO
Country
Flag of USUS
Related business
Manufacturer
Unknown
Mission
Spacecraft
Bus & Motor
Unknown
Mass
Unknown
Launch date (UTC)
1968-09-26 (58 years ago)
Launch vehicle
Unknown
Launch site
Air Force Eastern Test Range (AFETR)
Object type
Payload
Rocket body
Debris
Shape & HBR
Unknown shape, 1.1 m
Radar Cross Section
Medium (>0.1 m² and <1 m²)

Expand to show TLE details & history
Last TLE update: 10 hours ago

TLE from 10 hours ago
0 TITAN 3C TRANSTAGE DEB
1 25001U 68081H   26112.02440044 -.00000218  00000-0  00000+0 0  9992
2 25001   1.9172  51.7842 0072562 352.7161 288.0311  1.01693907117743
Epoch: 2026-04-22T00:35Z
TLE epoch observation values (Epoch: 2026-04-22T00:35:08.198Z)
Latitude
-1.87226°
Longitude
112.86889°
Altitude
35,299.67 km
Speed
3.096 km/s
True Right ascension
22h 06m 58s
True Declination
-1° 52' 13"
Sunlit
Object was in daylight at epoch
Visualization orbit readout
Latitude
Unknown
Longitude
Unknown
Altitude
Unknown
Speed
Unknown
Apparent Right ascension
Unknown
Apparent Declination
Unknown
Sunlit
N/A
Visualization observer readout
Local Sidereal Time
17:44:09
Azimuth
Unknown
Elevation
Unknown
Doppler factor
Unknown
Orbital elements
Apogee altitude
35,696.759 km
Perigee altitude
35,090.55 km
Semi-major axis
41,771.791 km
Eccentricity
0.00726
Inclination
1.9172°
RAAN
51.7842°
Arg. of periapsis
352.7161°
True anomaly
287.23824°
Mean anomaly
288.0311°
Eccentric anomaly
287.63489°
Mean motion
0.25423 °/min
Orbital period
1,416.07 mins
BSTAR
0
Loading maneuver chart data...
Computing Atmospheric mass density...

Documentation

Showing up to 5 results
|